Location: Aranbee
(34.0885°N, 118.2342°W)
Time: 22:56:54
(UTC+00:00)

Tiros 1 - Visible Passes

Search period start: 25 November 2020 00:00
Search period end: 05 December 2020 00:00
Orbit: 630 x 664 km, 48.4° (Epoch: 25 November)

Date Brightness Start Highest point End Pass type
(mag) Time Alt. Az. Time Alt. Az. Time Alt. Az.
25 Nov 9.1 02:16:44 10° WNW 02:20:03 18° NNW 02:21:50 15° NNE visible
26 Nov 9.4 02:44:06 10° NW 02:46:42 15° N 02:46:42 15° N visible
27 Nov 9.1 01:26:25 10° WNW 01:29:50 19° NNW 01:33:15 10° NNE visible
27 Nov 9.7 03:10:56 10° NNW 03:11:34 12° NNW 03:11:34 12° NNW visible
28 Nov 9.3 01:53:49 10° NW 01:56:32 15° N 01:58:46 11° NNE visible
29 Nov 9.2 02:20:42 10° NNW 02:23:18 14° N 02:23:38 14° N visible
30 Nov 9.3 02:46:52 10° NNW 02:48:32 15° N 02:48:32 15° N visible
01 Dec 9.2 01:30:28 10° NNW 01:33:04 14° N 01:35:39 10° NE visible
01 Dec 9.6 03:12:39 10° NNW 03:13:29 14° NNW 03:13:29 14° NNW visible
02 Dec 8.9 01:56:42 10° NNW 01:59:48 17° NNE 02:00:49 16° NNE visible
02 Dec 10.0 03:38:23 10° NW 03:38:29 11° NW 03:38:29 11° NW visible
03 Dec 8.6 02:22:31 10° NNW 02:25:53 23° NNE 02:25:53 23° NNE visible
04 Dec 9.0 01:06:32 10° NNW 01:09:34 16° NNE 01:12:35 10° NE visible
04 Dec 8.4 02:48:14 10° NW 02:51:05 30° NNW 02:51:05 30° NNW visible
